Location: Aranbee
(34.0885°N, 118.2342°W)
Time: 14:05:12
(UTC+00:00)

Tiros 1 - Pass Details

Date: 26 November 2020
Orbit: 630 x 663 km, 48.4° (Epoch: 21 January)

Event Time Altitude Azimuth Distance (km) Brightness Sun altitude
Rises 21:58:33 0° 196° (SSW) 2,976 11.7 25.7°
Reaches altitude 10° 22:01:18 10° 182° (S) 2,068 10.8 25.4°
Maximum altitude 22:05:00 22° 131° (SE) 1,418 9.1 24.9°
Drops below altitude 10° 22:08:42 10° 80° (E) 2,074 9.4 24.5°
Sets 22:11:28 0° 66° (ENE) 2,986 10.1 24.1°
